Location: Lane
(33.5226°N, 79.8788°W)
Time: 21:03:18
(UTC+00:00)

Courier 1B Rocket - Pass Details

Date: 04 October 2022
Orbit: 920 x 1202 km, 28.2° (Epoch: 05 December)

Event Time Altitude Azimuth Distance (km) Brightness Sun altitude
Rises 23:37:01 0° 244° (WSW) 3,846 9.4 -8.6°
Reaches altitude 10° 23:39:56 10° 239° (WSW) 2,846 8.4 -9.2°
Maximum altitude 23:46:26 45° 168° (SSE) 1,323 5.6 -10.5°
Enters shadow 23:51:36 15° 101° (E) 2,366 6.4 -11.6°
